Location: B�ndheim
(51.8881°N, 10.5488°E)
Time: 17:52:55
(UTC+00:00)

Daily predictions for brighter satellites

Satellite Brightness Start Highest point End
(mag) Time Altitude Azimuth Time Altitude Azimuth Time Altitude Azimuth
COSMOS 2428 3.7 20:18:21 10° SSE 20:23:01 27° ESE 20:27:43 10° NE
Cosmos 1844 3.9 20:17:12 10° NNW 20:23:01 80° WSW 20:28:44 10° SSE
Cosmos 2322 4.1 20:21:20 10° S 20:26:44 45° ESE 20:32:10 10° NE
CZ-4B DEB 4.4 20:28:51 10° SSE 20:32:11 78° ENE 20:35:34 10° N
Cosmos 1709 Rocket 4.1 20:27:20 10° S 20:33:35 68° E 20:39:55 10° NNE
Atlas Centaur 2 4.4 20:35:24 10° S 20:35:56 10° S 20:36:29 10° S
Terra 2.2 20:32:04 10° SE 20:36:41 52° ENE 20:41:19 10° N
Cosmos 2237 Rocket 3.9 20:33:57 10° SE 20:37:02 15° E 20:40:07 10° ENE
CARTOSAT-1 3.6 20:33:30 10° SSE 20:37:48 76° ENE 20:42:08 10° NNW
Cosmos 2333 4.4 20:33:02 10° S 20:38:30 52° ESE 20:44:02 10° NE
Cosmos 2219 Rocket 2.7 20:33:50 10° S 20:38:57 38° ESE 20:44:06 10° NE
Cosmos 2360 Rocket 2.3 20:35:06 10° SSW 20:40:45 89° WNW 20:46:29 10° NNE
IGS 5A 4.1 20:36:58 10° S 20:41:03 54° W 20:45:09 10° NNW
Cosmos 2333 Rocket 2.5 20:43:16 10° S 20:48:41 48° ESE 20:54:10 10° NE
Cosmos 1315 Rocket 3.0 20:46:10 10° N 20:50:15 68° ENE 20:54:13 11° SSE
ATLAS 2AS CENTAUR R/B 3.4 20:43:04 10° NW 20:50:45 58° NNE 20:57:48 10° ESE
Resurs 01 Rocket 3.8 20:49:47 10° SW 20:53:10 21° W 20:56:35 10° NW
Cosmos-2242 3.9 20:49:28 10° NNW 20:53:39 48° W 20:57:51 10° SSW
Cosmos 1818 3.7 20:50:35 10° SW 20:56:02 87° NW 21:01:32 10° NE
Cosmos 2221 3.0 20:54:25 10° N 20:58:42 49° ENE 21:02:29 13° SSE
Cosmos 773 Rocket 4.0 20:53:26 10° SSW 20:58:43 74° ESE 21:04:01 10° NNE
SL-16 R/B 3.9 20:54:42 10° WSW 20:59:59 38° NW 21:05:18 10° NNE
ERS-1 Rocket 3.3 20:57:18 10° S 21:02:19 66° WSW 21:07:22 10° NNW
GEOS 3 Rocket 3.7 20:56:54 10° NE 21:02:20 79° SE 21:07:45 10° SW
USA 215 3.4 20:59:20 10° ENE 21:05:42 50° SE 21:12:02 10° SW
Cosmos 2278 Rocket 2.4 21:02:20 10° NNW 21:08:01 70° NE 21:13:09 13° SE
Cosmos 1892 3.9 21:07:01 14° SE 21:09:32 26° E 21:12:44 10° NNE
Cosmos 1844 Rocket 4.1 21:07:40 10° NW 21:12:28 30° WSW 21:17:15 10° SSW
ATLAS 5 CENTAUR R/B 1.8 21:08:24 10° SW 21:12:39 78° NW 21:17:32 10° NE
Meteor 1-11 4.3 21:07:39 10° SSW 21:13:18 83° WNW 21:19:03 10° NNE
Gblst 52 Del rocket 4.5 21:09:04 10° WNW 21:14:38 57° SSW 21:20:33 11° SE
Cosmos 1943 Rocket 4.2 21:11:11 10° NNW 21:15:33 22° NE 21:19:53 10° E
SPOT 5 3.5 21:14:08 10° S 21:19:04 54° W 21:23:47 10° NNW
Lacrosse 5 rocket 2.8 21:16:58 10° WNW 21:20:57 39° N 21:24:43 10° ENE
SL-16 R/B 4.1 21:19:12 10° ESE 21:21:27 12° E 21:23:42 10° ENE
Cosmos 2056 Rocket 4.4 21:17:39 10° NNW 21:22:48 42° NE 21:27:39 11° SE
Nadezhda 3 Rocket 4.4 21:17:36 10° N 21:23:54 57° ENE 21:29:11 15° SSE
USA 81 4.3 21:20:54 10° SSW 21:26:10 70° W 21:31:28 10° N
BREEZE M DEB (TANK) 4.1 21:26:59 10° SW 21:27:25 10° SW 21:27:39 10° SSW
Cosmos 2058 3.5 21:25:00 16° SSE 21:27:57 42° E 21:31:53 10° NNE
Cosmos 2154 Rocket 4.4 21:23:03 14° SSE 21:28:07 46° E 21:34:02 10° NNE
Cosmos 1408 3.8 21:29:06 17° SE 21:31:00 26° E 21:34:02 10° NNE
In-Cosmos 22 Rocket 4.3 21:29:55 14° S 21:34:21 57° E 21:39:35 10° NNE
TSX-5 3.6 21:31:23 10° NW 21:34:47 76° WSW 21:37:36 19° SSE
Cosmos 2074 Rocket 4.0 21:29:15 11° S 21:35:21 78° E 21:41:36 10° NNE
Cosmos 1076 Rocket 3.9 21:36:09 17° SSE 21:39:09 49° E 21:43:18 10° NNE
Cosmos 1680 Rocket 4.1 21:35:41 16° SSE 21:39:36 41° ESE 21:44:35 10° NE
USA 267 3.3 21:34:05 12° SE 21:40:06 67° SW 21:46:40 10° WNW
CZ-4C R/B 4.1 21:38:01 10° NW 21:44:02 38° NNE 21:51:05 10° E
Cosmos 1842 Rocket 4.1 21:41:14 10° NNW 21:45:30 51° W 21:49:02 14° SSW
JB-3 4.2 21:42:57 10° NNE 21:46:49 88° E 21:49:57 15° SSW
COSMOS 2455 4.1 21:42:20 10° NNW 21:47:57 38° NE 21:53:33 10° ESE
Cosmos 2151 4.1 21:47:18 18° SE 21:49:41 30° E 21:53:25 10° NNE
MTI 3.8 21:47:44 10° N 21:50:49 71° WNW 21:53:10 16° SSW
ATLAS CENTAUR R/B 2.8 21:53:44 10° WNW 21:56:34 21° WSW 21:58:26 15° SSW
Cosmos 923 Rocket 4.0 21:52:20 13° SSW 21:57:02 70° ESE 22:02:19 10° NNE
Cosmos 2327 Rocket 4.5 21:52:14 15° S 21:57:33 79° E 22:03:41 10° NNE
Cosmos 1825 2.9 21:58:08 22° SSE 22:00:04 38° E 22:03:37 10° NNE
Cosmos 2369 Rocket 3.9 21:55:24 10° NNW 22:00:10 27° NE 22:04:56 10° E
Cosmos 1151 Rocket 4.2 21:56:26 10° N 22:00:20 32° ENE 22:03:13 16° SE
ALOS 2 3.4 21:58:03 17° SE 22:01:06 43° ENE 22:05:17 10° N
Cosmos 1980 3.8 21:56:55 13° SSW 22:01:53 62° ESE 22:07:28 10° NE
Cosmos 967 Rocket 4.5 21:57:42 10° SSW 22:04:09 73° SE 22:10:37 10° NE
Cosmos 44 4.4 22:05:15 19° SE 22:06:20 20° ESE 22:09:35 10° ENE
COSMOS 2428 3.2 22:01:16 10° SW 22:06:53 64° NW 22:12:34 10° NNE
Cosmos 371 Rocket 4.2 22:03:15 10° NNW 22:07:56 43° ENE 22:11:47 14° SE
GP-B 4.0 22:04:42 10° NNE 22:08:50 36° E 22:11:23 19° SE
Cosmos 1295 Rocket 4.5 22:06:31 18° S 22:11:15 73° E 22:17:21 10° NNE
Cosmos 1624 Rocket 4.0 22:08:08 10° NNW 22:13:25 88° WSW 22:16:57 21° SSE
NOSS 3-4 (A) 3.9 22:07:09 10° NW 22:13:59 68° SW 22:19:46 18° SSE
NOSS 3-4 (C) 3.9 22:07:15 10° NW 22:14:06 68° SW 22:19:55 18° SSE
NOSS 0 Rocket 3.9 22:08:08 10° SSW 22:14:17 83° ESE 22:20:30 10° NNE
Terra 3.5 22:10:50 10° SSW 22:14:43 24° W 22:18:37 10° NW
Cosmos 2237 Rocket 2.2 22:14:58 13° SSW 22:20:09 77° ESE 22:25:53 10° NNE
SL-4 R/B 2.5 22:19:54 17° E 22:20:18 18° ENE 22:21:50 10° NNE
Genesis I 3.5 22:18:36 23° S 22:20:42 48° SE 22:24:29 10° NE
Cosmos 2219 Rocket 3.2 22:17:27 10° SW 22:22:49 47° NW 22:28:16 10° NNE
Cosmos 2344 3.7 22:16:02 12° SSW 22:22:50 54° ESE 22:30:42 10° NE
NOSS 3-3 (A) 4.4 22:19:37 10° WSW 22:25:38 69° NW 22:32:34 10° NE
NOSS 3-3 (C) 4.4 22:19:43 10° WSW 22:25:46 70° NW 22:32:41 10° NE
Thor Agena Rocket 3.5 22:24:18 10° NNE 22:29:27 87° WNW 22:33:18 18° SSW
Cosmos 2333 Rocket 3.5 22:27:44 10° WSW 22:33:06 40° NW 22:38:30 10° NNE
RESURS DK-1 4.4 22:35:09 10° NNW 22:38:37 25° NE 22:42:05 10° E
Cosmos 1515 Rocket 4.3 22:36:25 10° N 22:40:37 45° ENE 22:43:15 21° SE
Cosmos 1371 Rocket 4.5 22:36:00 10° NNW 22:41:05 50° WSW 22:44:15 22° S
BREEZE-M DEB (TANK) 2.1 22:38:00 10° W 22:41:17 33° SSW 22:41:21 33° SSW
ATLAS 2AS CENTAUR R/B 3.1 22:34:28 10° NW 22:41:48 53° WSW 22:46:25 21° S
EO 1 Del DPAF 3.5 22:38:52 10° N 22:42:36 63° WNW 22:44:59 21° SSW
Cosmos 1892 4.3 22:41:59 11° SW 22:45:09 30° WNW 22:48:33 10° N
Cosmos 1766 Rocket 3.6 22:44:24 26° S 22:46:48 71° E 22:51:13 10° NNE
Cosmos 1328 Rocket 3.5 22:43:44 10° N 22:48:04 83° ENE 22:50:25 27° SSE
Aureole 2 Rocket 2.3 22:45:32 10° NW 22:48:17 50° WSW 22:48:59 38° SSW
Gbstr 26 Del rocket 4.3 22:49:28 19° SE 22:49:28 19° SE 22:51:52 10° E
USA 215 3.4 22:42:25 10° ENE 22:49:00 78° NNW 22:55:33 10° WSW
Okean 3 Rocket 3.5 22:47:02 25° S 22:49:37 86° ESE 22:54:05 10° NNE
Cosmos 1606 2.8 22:46:33 10° NNW 22:50:27 73° W 22:52:19 29° S
Cosmos 2278 Rocket 3.7 22:47:08 10° NW 22:51:37 24° WSW 22:54:59 14° SSW
Cosmos 2112 Rocket 4.3 22:48:23 13° SW 22:53:10 68° WNW 22:58:32 10° NNE
Cosmos 2297 3.8 22:47:50 10° NW 22:53:35 69° WSW 22:57:11 23° SSE
Cosmos 304 Rocket 4.3 22:49:41 10° NNW 22:54:27 54° ENE 22:58:04 17° SE
Cosmos 2218 Rocket 4.1 22:50:54 22° S 22:55:11 71° E 23:01:28 10° NNE
Cosmos 2228 Rocket 4.2 22:51:56 10° N 22:56:16 38° ENE 22:59:19 17° SE
Cosmos 158 Rocket 4.4 22:52:56 12° SW 22:57:21 57° WNW 23:02:14 10° NNE
Cosmos 1420 Rocket 4.0 22:52:06 10° NNW 22:57:22 74° WSW 23:00:36 24° SSE
ATLAS 5 CENTAUR R/B 4.1 22:54:08 10° WNW 22:58:03 27° NNW 23:02:28 10° NE
Cosmos 1943 Rocket 2.3 22:54:34 10° NNW 23:00:18 75° ENE 23:04:40 17° SE
Lacrosse 5 rocket 1.7 22:56:34 10° WNW 23:00:36 60° NNE 23:04:24 10° ESE
Cosmos 2366 rocket 4.1 22:56:35 22° S 23:00:52 74° E 23:07:13 10° NNE
Cosmos 1633 3.5 23:01:11 25° SE 23:02:35 35° E 23:05:55 10° NNE
SL-16 R/B 2.2 23:00:47 22° SSW 23:04:29 67° ESE 23:10:09 10° NE
Cosmos 2056 Rocket 4.4 22:59:57 10° NW 23:04:56 39° WSW 23:07:58 21° SSW
Cosmos 1408 4.3 23:03:24 13° SW 23:05:59 26° WNW 23:09:04 10° N
Cosmos 1959 Rocket 4.5 23:06:20 22° S 23:10:29 87° E 23:16:44 10° N
YAOGAN 11 4.1 23:09:09 26° SSE 23:11:38 82° ENE 23:16:06 10° NNW
Cosmos 1743 Rocket 4.1 23:12:36 25° SSE 23:14:45 45° E 23:18:55 10° NNE
Cosmos 2341 Rocket 4.4 23:11:47 17° SSW 23:16:37 58° WNW 23:22:46 10° N
Cosmos 332 Rocket 3.8 23:13:58 10° NNW 23:18:46 72° WSW 23:21:28 26° S
USA 267 4.4 23:21:24 19° SSW 23:23:57 24° SW 23:29:05 10° WNW
Meteor 2-3 Rocket 3.7 23:21:02 23° S 23:24:39 87° ESE 23:30:25 10° NNE
Helios 1A 3.2 23:24:53 28° S 23:26:54 59° WSW 23:31:03 10° NNW
Cosmos 2151 4.3 23:23:52 15° SW 23:26:55 33° WNW 23:30:50 10° N
Cosmos 405 2.9 23:24:05 10° NNW 23:27:40 89° WSW 23:29:08 33° S
Cosmos 1452 Rocket 3.7 23:26:58 10° NNW 23:32:08 57° WSW 23:35:06 25° S
CZ-4C R/B 3.0 23:26:35 10° NW 23:33:31 81° NE 23:41:40 10° SE
Meteor 2-6 Rocket 4.3 23:28:34 10° N 23:34:06 69° ENE 23:37:54 20° SSE
COSMOS 2455 2.9 23:28:18 10° NW 23:34:17 65° WSW 23:38:24 21° SSE
PSLV R/B 4.0 23:30:19 10° NNE 23:34:26 50° E 23:36:34 26° SSE
SL-8 Rocket 4.4 23:30:59 18° SSW 23:35:34 56° WNW 23:41:39 10° N
Cosmos 1825 4.2 23:32:56 11° WSW 23:35:44 21° WNW 23:38:43 10° NNW
Cosmos 1110 Rocket 4.2 23:30:51 10° NNW 23:36:08 74° ENE 23:40:16 17° SSE
Cosmos 1340 3.0 23:34:23 26° SW 23:36:17 56° WNW 23:40:01 10° N
Cosmos 1933 4.5 23:32:46 10° NNW 23:36:22 32° W 23:38:13 22° SW
ALOS 2 4.1 23:35:27 18° SW 23:37:36 26° W 23:41:17 10° NW
Cosmos 1151 Rocket 4.2 23:34:02 10° NNW 23:37:54 32° W 23:40:03 20° SW
Cosmos 1408 Rocket 3.8 23:35:56 24° SSW 23:38:26 61° WNW 23:42:50 10° N
SL-16 R/B 3.9 23:33:31 10° ESE 23:39:05 36° ENE 23:44:42 10° N
Cosmos 1603 4.5 23:36:25 22° SSE 23:39:34 39° ESE 23:44:50 10° NE
Cosmos 1727 Rocket 4.2 23:37:52 10° NNW 23:43:59 61° W 23:48:04 22° SSW
APEX 3.7 23:42:05 10° NW 23:44:21 25° WSW 23:44:21 25° WSW
Resurs 1-4 Rocket 4.1 23:40:58 10° NE 23:44:36 18° E 23:48:13 10° SE
Cosmos 2369 Rocket 2.1 23:39:12 10° NNW 23:44:49 78° WSW 23:48:49 20° SSE
Cosmos 44 3.2 23:43:38 16° SW 23:47:03 69° NW 23:51:33 10° NE
Cosmos 1500 Rocket 3.5 23:44:49 27° S 23:47:12 87° E 23:51:38 10° N
Cosmos 371 Rocket 4.4 23:43:58 10° NW 23:48:14 31° WSW 23:50:25 21° SW
SL-4 R/B 3.2 23:48:59 11° W 23:48:59 11° W 23:49:28 10° WNW
SeaSat 1 4.1 23:45:03 10° ENE 23:48:44 21° ESE 23:51:20 14° SE
ISS -1.3 23:51:00 12° ESE 23:51:00 12° ESE 23:51:36 10° ESE
Helios 1B rocket 2.6 23:49:08 10° NNE 23:53:15 63° ESE 23:55:23 27° S
